RH
44 47 49 50 52 54 57 62 76 80 78 72 75 61 52 48 41 41 47 54 59 70 74 68 69 73 65 72 69 60 51 58 68 66 66 74 80 80
55 62 70 76 72 66 65 80 92 90 79 77 75 65 56 48 41 46 47 59 72 71 84 71 79 80 77 75 80 80 82 87 82 75 83 76 76 82
89 97 100 97 89 79 91 95 97 86 77 78 77 67 60 46 43 45 52 63 82 88 91 94 96 97 92 85 85 92 90 92 91 86 82 84 80 76
100 100 100 99 98 96 95 99 99 85 77 80 77 75 50 42 42 46 51 65 80 91 100 98 97 92 96 96 96 96 95 92 90 87 83 82 84 56
94 100 99 99 96 96 97 98 96 89 86 90 88 54 41 42 44 44 55 75 84 96 98 98 97 92 99 95 96 95 95 93 89 89 93 92 92 93
100 99 98 98 99 99 98 97 96 95 94 92 57 40 40 50 52 58 66 82 91 93 95 98 95 90 100 99 96 96 96 91 92 93 92 92 92 94
90 100 100 99 99 97 97 98 96 96 94 61 57 55 57 60 64 76 70 85 94 93 98 91 88 95 97 96 97 96 95 92 91 93 95 95 95 95
98 97 98 98 97 97 97 97 96 92 82 56 52 58 53 66 68 69 77 92 96 97 98 100 95 97 97 97 96 95 95 93 91 97 96 95 95 94
98 93 98 98 98 97 96 96 79 61 58 47 49 64 70 83 72 69 90 90 94 97 97 98 98 97 96 96 95 96 94 95 94 93 81 78 79 83
97 99 99 94 98 96 94 91 87 71 51 61 66 73 78 84 78 83 93 97 96 97 97 96 96 96 96 95 96 95 95 95 95 90 93 94 92 82
98 98 97 98 95 98 92 92 63 54 59 69 67 70 75 78 83 89 94 98 96 95 97 96 96 96 96 96 95 96 95 95 94 96 95 89 76 65
97 94 98 95 94 94 94 82 62 54 70 70 75 75 71 81 87 93 96 97 97 96 95 96 96 96 97 96 95 96 95 95 95 94 88 78 66 57
96 97 96 96 95 94 64 49 55 67 72 76 77 79 82 86 92 96 97 96 96 95 96 96 96 96 97 96 95 96 95 96 96 90 80 72 64 51
97 96 96 96 92 87 50 55 67 72 76 78 83 86 89 90 92 94 96 96 96 96 97 96 96 97 97 96 95 96 96 96 93 84 77 71 61 36
97 96 96 94 78 49 49 69 83 80 81 86 88 87 89 91 88 92 96 95 96 96 96 96 96 95 95 95 95 95 96 94 87 80 74 68 56 29
95 96 96 92 57 48 60 78 80 82 88 92 93 92 89 89 89 95 96 96 95 96 96 96 95 96 96 95 94 94 93 85 80 74 68 58 48 25
96 96 82 55 51 62 74 80 84 92 93 93 94 92 90 90 93 96 96 96 96 96 96 96 96 96 95 95 93 90 83 78 74 68 53 30 29 20
95 77 62 56 74 77 81 86 90 92 92 92 92 90 91 92 96 97 97 96 96 96 96 96 95 96 96 92 88 82 78 73 60 27 11 10 14 13
74 65 65 75 76 77 82 85 85 84 90 88 86 84 92 93 94 94 96 96 96 96 96 95 95 96 92 88 84 80 76 61 23 10 12 13 13 10
69 68 76 77 82 79 81 81 81 88 90 88 89 91 94 95 96 96 96 96 96 96 96 96 98 96 92 87 83 81 72 35 11 12 13 13 11 9
79 77 84 87 86 81 82 82 88 89 90 90 94 96 96 96 95 95 95 96 96 96 96 97 95 92 92 88 85 82 65 24 12 12 11 9 9 9
80 86 89 89 84 82 83 86 90 91 90 89 93 95 95 95 95 96 96 96 96 97 99 97 94 93 93 90 86 81 41 15 13 12 9 8 8 9
94 97 91 85 85 87 88 90 92 91 89 90 95 96 96 96 95 96 96 96 99 99 96 94 94 92 94 93 88 71 20 14 14 13 10 10 10 10
Wind_Speed
39 40 42 43 46 48 48 46 51 45 42 36 35 32 33 33 31 29 28 27 26 26 27 27 27 25 20 20 25 26 27 26 26 24 24 19 16 18
42 44 44 43 45 47 46 53 43 41 42 39 35 33 33 32 30 29 29 28 27 25 25 24 24 23 25 29 26 26 27 29 29 31 27 23 20 21
45 44 42 42 46 46 49 48 39 41 40 38 37 33 33 31 30 30 29 27 25 22 21 22 25 27 28 28 27 27 31 29 27 26 24 20 18 20
44 45 50 46 47 49 46 35 39 38 38 37 36 35 33 32 32 31 29 27 26 22 17 19 25 24 24 20 21 23 22 21 17 17 18 18 18 17
41 46 51 55 49 49 48 46 36 37 38 38 34 33 32 32 32 30 28 27 27 23 24 21 26 22 22 24 24 20 16 15 16 15 14 15 15 18
42 48 53 53 49 52 50 45 41 37 37 32 32 31 31 30 28 29 26 25 25 24 22 24 22 20 26 22 23 19 16 15 17 16 16 13 12 14
45 48 52 50 51 42 42 43 41 38 30 29 29 29 30 29 28 27 27 24 23 19 19 18 20 21 27 25 23 18 17 16 17 15 13 12 10 8
43 38 47 47 43 44 41 38 37 32 24 28 28 28 29 27 27 27 24 22 19 18 17 18 17 24 29 23 21 18 17 18 17 13 9 7 7 8
43 38 38 41 42 38 34 31 24 22 23 27 28 28 26 27 24 23 20 21 19 16 17 18 23 24 25 22 19 17 19 15 14 10 8 8 9 9
37 34 40 39 37 33 30 29 21 20 24 25 26 25 25 24 24 22 19 17 18 20 21 21 27 23 18 18 18 19 16 13 12 10 11 10 10 10
38 36 35 34 31 27 23 20 21 22 23 24 23 22 23 24 23 22 20 23 22 23 23 23 22 23 19 20 20 17 15 13 12 11 10 10 11 12
30 32 33 30 28 23 17 18 25 25 23 22 22 22 23 22 21 20 19 21 23 24 24 23 25 21 21 20 17 15 14 13 12 11 10 11 11 11
26 30 27 19 18 17 19 22 21 20 20 20 20 19 18 16 17 18 19 18 21 22 22 24 24 23 21 19 18 14 14 13 12 11 10 10 11 10
26 27 23 19 18 17 19 17 16 16 17 18 17 15 14 13 13 14 15 17 17 18 21 20 20 19 19 19 18 14 13 13 12 11 10 10 10 9
25 24 22 18 18 19 17 15 14 15 16 15 14 12 12 13 16 15 15 18 19 20 22 20 20 21 20 19 15 13 13 12 12 11 11 11 10 9
19 20 20 18 19 16 15 12 15 15 14 12 12 11 12 13 16 16 19 20 20 20 21 20 21 20 18 15 13 13 12 12 12 12 13 12 11 9
18 19 17 17 15 14 14 14 13 12 11 11 11 11 11 12 11 10 13 16 17 18 17 19 19 16 13 12 12 12 12 12 12 13 13 13 12 10
19 16 15 14 15 14 14 12 11 11 11 11 11 10 10 10 9 10 14 16 17 18 18 17 15 13 11 11 11 11 12 12 12 12 12 12 12 11
14 15 15 15 15 12 12 12 10 11 12 12 10 8 8 8 9 11 14 16 17 16 16 15 12 10 9 10 11 10 11 11 10 9 9 10 11 11
15 15 15 16 13 11 12 9 9 11 12 10 8 8 9 10 13 14 14 14 15 15 14 12 10 9 10 10 9 9 9 9 8 8 8 9 10 10
17 17 16 15 12 12 11 9 11 11 11 10 9 9 11 12 13 13 13 13 13 13 12 10 10 11 11 10 9 8 9 9 9 9 9 9 9 9
18 17 16 13 12 12 9 10 11 11 12 11 10 10 11 12 12 13 13 13 13 12 12 11 12 12 10 9 9 9 9 9 11 11 10 9 9 9
17 16 15 13 13 11 10 10 11 11 10 9 10 11 11 11 11 11 12 13 13 13 12 12 12 11 10 9 8 8 9 10 12 12 11 10 10 9
Wind_Direction
273 273 276 276 276 277 282 287 296 293 293 295 295 290 291 292 289 286 282 279 276 273 273 273 269 266 264 285 287 280 277 281 292 295 292 294 297 270
274 275 272 273 275 278 282 287 291 292 290 294 291 288 290 290 287 281 279 276 274 272 269 268 267 267 273 285 283 276 277 282 283 291 290 277 272 269
273 273 273 271 271 273 280 285 288 292 291 292 288 285 288 285 282 279 278 273 268 269 259 257 259 269 283 283 283 275 282 286 281 284 283 276 266 255
268 268 271 259 264 265 275 280 285 290 289 288 283 286 283 280 277 275 272 269 265 264 257 257 262 277 284 279 278 283 287 291 291 283 281 280 266 258
263 268 266 257 257 264 272 273 284 287 286 285 282 281 280 277 275 273 270 265 264 260 253 247 250 270 271 276 280 286 288 301 298 292 282 278 265 249
267 271 269 265 275 270 276 279 281 283 281 277 278 279 278 280 279 278 277 268 261 261 255 249 268 270 264 256 271 276 286 298 300 298 291 278 255 244
263 271 274 267 267 271 275 277 277 273 270 274 278 279 277 277 276 278 277 264 255 246 260 250 257 255 238 264 260 272 290 300 296 294 282 272 266 256
274 272 267 264 268 271 272 267 268 269 271 273 273 275 273 275 275 272 263 254 246 237 251 256 254 237 243 252 257 275 289 297 295 286 276 275 269 271
266 266 275 271 268 262 260 260 265 268 268 270 271 269 272 274 272 267 254 249 236 244 247 256 229 228 247 256 267 274 287 282 284 275 274 271 269 266
273 273 266 269 259 250 253 266 253 259 265 267 269 273 274 272 268 259 254 228 226 236 248 233 228 234 246 260 256 279 270 273 266 267 270 273 273 273
262 256 274 253 237 244 254 250 260 263 263 266 271 274 276 271 264 253 246 236 241 239 234 231 230 228 246 253 270 265 261 262 260 267 275 281 285 286
270 267 253 238 245 257 244 250 260 259 261 266 268 271 272 269 261 251 243 241 237 234 229 218 222 235 242 256 260 253 256 256 262 266 273 280 283 285
273 255 230 239 245 237 255 256 254 259 263 267 270 271 271 266 256 247 239 234 228 225 219 221 229 238 243 251 248 245 250 257 262 266 273 280 286 287
266 230 226 233 240 251 265 255 252 257 263 266 267 266 261 257 251 240 225 218 216 208 216 227 230 234 238 234 242 243 249 255 263 271 280 285 287 286
219 218 226 232 249 263 253 244 248 256 261 263 263 262 261 253 243 230 224 221 218 218 215 217 220 223 229 235 235 239 247 255 264 272 278 280 279 275
223 227 227 237 258 247 245 246 251 254 255 253 255 261 263 250 240 232 225 223 225 224 219 224 227 224 222 224 232 241 249 258 264 271 274 271 265 258
228 227 243 253 245 238 238 242 246 244 246 247 251 256 262 244 231 227 219 218 219 220 226 215 209 207 213 226 238 247 256 263 268 271 269 261 248 239
231 248 245 240 231 229 236 238 240 248 250 247 245 253 249 222 209 221 229 223 223 216 204 199 198 203 216 231 243 255 263 270 275 269 259 242 227 220
242 246 232 227 227 231 239 237 240 253 245 237 242 251 241 220 201 198 200 205 202 198 196 196 198 207 223 241 252 260 269 275 268 254 239 220 211 207
247 230 224 224 223 231 232 230 241 238 236 237 246 242 221 215 210 200 192 194 199 196 195 199 208 224 240 250 256 261 271 269 247 228 215 205 203 207
235 228 223 222 221 226 221 220 226 233 240 247 240 227 215 211 207 199 192 198 202 201 203 214 229 242 248 254 259 264 273 255 230 213 208 206 210 217
225 223 222 217 219 220 212 221 225 227 239 242 229 216 205 203 203 198 196 203 207 211 220 233 242 245 249 252 256 265 268 242 225 214 212 212 217 225
219 216 214 212 215 209 207 217 225 231 230 223 214 203 198 199 203 207 210 215 220 227 234 237 237 242 243 247 256 273 260 234 225 218 215 218 226 237